Wind_Speed
51 51 50 49 49 48 48 48 49 49 49 50 49 49 48 48 49 50 50 50 50 51 51 52 53 53 53 54 54 54 55 55 56 56 57 58 59 59 59 58 57 57 57 56 56 55 56 57 58 59 61 62 64 66 68 70 71 72 73 74 75 76 75 74 73 71 71 72 71 71 71 70 70 71 71 72 74 76 78 79 81 84 87 90 92
52 52 51 51 50 49 49 50 50 50 50 51 50 50 50 50 51 52 52 52 52 52 52 53 54 54 54 54 55 55 56 56 57 57 58 58 58 58 58 57 57 57 56 56 56 57 58 59 60 62 63 65 66 68 69 71 71 72 73 75 75 75 73 73 73 72 71 70 70 70 71 71 71 72 73 74 75 77 78 80 83 86 89 91 93
53 52 52 51 50 50 51 51 51 51 51 51 51 51 52 52 52 53 53 53 53 53 53 54 54 54 55 55 55 56 56 57 57 58 58 57 57 57 57 57 57 57 57 57 58 59 60 61 62 64 65 66 68 69 70 71 72 73 74 75 74 73 72 73 73 72 71 69 70 70 71 71 72 73 75 76 77 78 80 82 84 87 90 91 93
54 53 52 52 51 51 52 52 52 52 52 52 53 53 53 53 53 53 53 54 54 54 54 54 55 55 55 56 56 56 57 57 57 57 57 57 57 57 57 57 57 57 57 58 59 61 62 63 64 65 67 68 69 70 71 72 73 74 74 73 72 71 72 73 73 72 71 70 70 71 72 73 74 76 77 78 79 81 82 84 86 89 91 92 93
55 54 54 53 53 53 53 53 53 53 53 53 53 53 53 53 53 53 54 54 54 54 55 55 55 55 56 56 56 57 57 57 56 56 56 56 56 56 57 57 57 58 59 60 61 62 63 64 65 67 68 70 70 70 72 73 74 74 74 72 71 71 72 72 72 72 72 71 71 72 73 74 76 78 80 81 81 81 83 85 87 90 91 93 95
55 55 55 54 54 54 54 54 54 53 53 53 53 53 53 53 53 54 54 54 55 55 55 55 56 56 56 56 56 56 56 56 55 55 55 55 56 56 57 57 58 59 61 62 63 63 64 65 67 68 69 70 70 71 73 74 74 73 72 71 71 71 71 72 72 72 73 73 72 73 74 76 78 81 83 84 84 84 84 85 87 89 91 93 95
55 55 55 54 54 54 54 54 54 54 54 53 53 53 54 54 54 54 55 55 55 55 55 55 56 56 56 56 56 56 55 55 54 54 55 55 56 56 57 58 60 61 62 63 63 64 65 67 68 69 69 70 71 73 74 74 73 72 72 71 71 71 71 72 73 73 73 74 74 75 76 78 81 83 84 86 87 88 88 88 88 89 90 93 94
55 54 54 54 54 54 54 54 54 54 54 54 54 54 54 55 55 54 54 54 55 55 55 55 55 55 56 56 55 55 54 54 54 55 55 56 56 58 59 60 61 62 62 63 64 65 67 68 68 69 69 70 72 73 73 72 72 72 72 72 71 71 72 73 73 74 74 75 76 77 78 81 83 84 86 87 88 89 90 91 91 91 91 92 94
55 54 53 53 53 53 53 53 53 54 54 54 54 54 54 54 54 54 54 55 55 55 55 56 56 56 56 55 54 54 54 54 55 55 56 57 58 59 60 61 61 62 63 64 65 67 68 68 68 68 69 71 72 72 71 71 72 72 72 72 71 72 73 74 75 75 75 76 77 79 81 83 85 86 87 88 89 90 91 92 93 93 92 92 92
55 55 54 53 53 53 53 53 53 54 54 54 54 54 54 54 55 55 55 56 56 56 56 56 56 56 55 54 54 54 55 55 56 57 58 59 60 60 61 61 61 62 64 65 67 67 67 68 68 69 70 71 70 70 70 72 72 72 72 72 73 73 74 75 76 76 76 77 79 81 83 85 87 88 88 88 89 90 91 92 93 93 93 92 91
56 56 55 55 55 54 54 54 53 53 53 53 54 54 55 55 56 56 57 57 57 57 57 56 56 55 55 55 55 55 56 57 58 59 59 60 60 60 60 61 62 64 65 66 67 67 67 68 69 70 70 69 69 70 71 72 72 72 73 73 74 74 75 76 76 77 77 79 81 83 85 86 88 89 89 88 89 90 92 93 93 93 93 92 92
56 56 56 56 56 55 55 55 54 54 54 54 55 55 56 56 57 57 58 58 57 57 56 55 55 55 55 56 56 57 58 59 59 59 59 59 59 60 61 62 64 65 66 67 67 67 68 69 69 69 68 68 69 70 71 71 72 72 74 74 75 75 76 77 77 77 79 80 82 85 86 87 88 88 89 88 89 90 91 92 92 92 92 93 93
56 56 55 55 55 55 55 55 54 54 55 55 56 56 57 58 58 57 57 57 56 56 55 55 56 56 57 58 58 59 59 59 59 58 58 58 59 61 62 64 65 66 66 67 67 68 69 69 68 67 67 68 70 70 71 71 72 73 74 75 75 76 76 77 77 78 80 82 84 86 87 88 88 88 89 89 89 90 90 90 90 91 91 92 92
55 56 55 55 55 55 55 55 56 56 57 57 58 58 58 58 57 56 56 56 56 56 56 57 57 58 59 59 60 60 59 58 58 57 58 59 61 62 64 65 65 66 67 67 68 68 68 67 66 66 67 69 69 70 71 72 73 74 75 75 75 76 76 77 78 79 82 84 85 87 88 88 88 88 89 89 90 89 89 89 89 89 89 90 90
55 55 55 56 56 56 57 58 58 59 59 59 59 58 58 57 56 56 57 57 57 57 58 58 59 59 60 60 60 59 58 57 57 58 59 61 62 63 64 65 66 66 67 68 68 68 67 66 66 67 68 69 69 70 71 73 74 75 75 75 75 75 75 77 79 81 83 85 86 87 87 87 88 88 89 89 89 89 89 88 88 88 88 88 88
54 55 56 56 57 57 58 58 59 59 59 59 58 57 57 57 57 57 57 58 58 58 59 59 60 60 60 59 58 57 57 57 58 60 61 62 63 64 65 65 66 67 68 68 67 66 66 66 67 67 68 68 69 71 73 74 74 74 74 74 74 74 75 77 80 82 84 85 86 87 87 87 88 88 89 89 88 88 88 88 87 87 86 86 85
56 56 57 57 58 58 58 58 58 58 57 57 56 56 56 57 57 57 57 58 58 59 60 60 60 59 58 57 57 57 57 59 60 61 62 62 63 64 65 66 67 68 68 67 66 66 66 67 67 67 68 69 70 72 74 74 74 74 74 73 72 74 76 78 81 83 85 85 86 86 86 87 87 88 88 88 87 87 87 86 86 86 85 85 84
57 57 57 57 57 57 57 56 56 56 56 56 56 56 57 57 57 58 58 59 60 60 59 58 57 57 56 56 57 57 58 60 60 61 62 63 64 66 67 68 67 67 66 66 66 67 67 67 67 67 68 70 72 74 74 74 74 73 72 72 73 75 77 79 82 83 85 86 86 86 86 87 87 87 87 86 86 86 86 85 85 84 84 83 82
57 57 57 57 57 57 56 56 56 56 56 57 57 58 58 58 59 59 60 59 58 58 57 56 56 56 56 57 58 58 59 60 61 62 63 64 66 67 67 67 67 66 66 66 67 67 67 67 66 67 69 72 73 74 74 74 74 72 72 73 75 77 78 80 82 83 84 85 85 85 86 86 86 86 85 85 85 85 85 84 84 83 82 81 80
58 58 59 59 58 58 58 58 58 58 58 59 59 59 59 60 59 59 58 57 56 55 55 55 56 56 57 57 58 59 60 61 62 63 64 66 66 67 67 67 66 66 67 67 67 67 66 66 67 69 71 73 74 74 74 73 73 73 74 75 76 77 79 81 82 83 84 84 85 85 85 85 85 85 84 84 84 84 84 83 83 82 80 79 78
57 58 58 58 59 59 59 59 59 60 60 60 60 59 59 58 57 56 55 55 55 55 55 56 56 57 57 58 59 60 61 62 64 64 65 66 66 66 67 67 67 67 67 67 67 66 66 67 69 71 73 74 74 74 73 73 73 74 74 75 76 78 79 81 82 83 84 84 84 84 84 84 84 83 83 83 83 83 82 82 81 80 78 77 76
57 57 57 58 58 59 59 59 59 59 58 58 57 56 56 55 55 54 54 54 54 55 55 56 56 57 58 59 60 61 62 63 64 64 65 66 66 67 67 67 67 67 67 67 66 66 67 69 71 73 73 74 74 73 73 73 74 74 74 75 77 78 80 81 82 83 84 84 84 84 84 83 83 82 82 82 82 81 81 80 79 78 76 75 74
56 57 57 57 57 57 56 56 55 55 55 54 54 53 53 53 53 53 53 54 54 54 55 55 56 56 57 58 59 60 61 62 64 65 66 67 67 67 67 67 67 67 67 66 67 68 69 71 72 73 73 73 73 73 73 73 73 74 74 76 77 78 80 81 82 83 83 83 83 83 83 82 82 82 82 81 81 80 79 78 77 75 74 73 72
52 52 53 53 53 52 52 52 52 52 51 51 51 51 51 51 51 51 52 52 52 53 53 54 55 56 58 59 60 61 62 63 65 66 67 68 68 67 67 67 67 67 67 67 68 69 71 72 72 72 72 72 72 72 72 72 73 74 75 76 77 78 80 81 82 82 82 82 82 82 82 82 81 81 81 80 79 79 78 76 75 73 72 71 69
48 48 48 49 49 49 49 48 48 48 48 48 48 48 49 49 49 50 51 51 52 53 54 55 56 58 59 60 62 63 64 65 66 67 68 68 67 67 67 67 67 67 67 68 69 70 71 71 70 71 71 71 71 71 72 72 73 74 75 76 77 78 80 81 81 81 81 81 81 81 81 81 81 81 80 79 78 77 76 74 73 71 70 68 66
45 45 45 46 46 46 46 46 46 47 47 47 48 48 49 49 50 51 51 52 53 54 56 57 59 60 61 62 64 65 66 66 67 67 68 67 67 67 67 67 67 67 67 68 69 70 69 69 69 69 69 70 70 71 71 72 73 74 75 76 77 78 79 80 80 80 81 81 80 80 80 81 81 80 79 78 77 76 74 72 70 68 67 66 64
43 44 44 44 45 45 46 46 47 47 48 48 49 49 50 51 52 52 53 55 56 57 58 59 61 62 63 64 65 65 66 66 66 67 66 66 66 67 67 66 66 66 67 68 69 69 68 68 69 69 69 70 70 71 71 72 73 75 76 77 77 78 79 79 79 79 80 80 80 80 80 80 80 79 78 77 76 75 72 70 67 65 63 63 62
43 44 44 45 45 46 46 47 48 48 49 50 50 51 52 53 53 55 56 57 58 58 59 61 62 63 64 64 65 65 65 65 65 65 65 66 66 66 66 66 66 66 67 68 69 68 68 68 68 69 69 70 71 71 72 74 75 75 76 77 77 78 78 78 78 78 79 79 79 80 80 80 79 78 77 76 75 73 70 68 65 62 60 59 59
44 45 45 46 46 47 48 48 49 50 50 51 52 52 53 54 55 56 57 58 59 59 60 61 62 63 63 63 64 64 64 64 64 65 66 66 66 66 66 66 66 66 67 68 68 68 68 68 69 70 70 71 72 73 74 75 75 76 76 76 77 77 77 77 77 77 78 79 80 80 79 79 78 77 76 75 74 72 69 67 63 59 57 57 56
45 46 46 47 47 48 49 50 51 51 52 52 53 53 54 55 55 56 57 58 58 59 60 60 61 62 62 62 63 63 63 64 65 66 66 66 66 66 66 66 67 67 67 68 68 68 68 69 70 71 72 73 74 74 75 75 75 75 76 76 76 77 77 77 76 76 77 78 79 79 78 77 77 76 75 74 73 71 68 65 62 58 55 55 54
47 47 48 48 49 50 51 52 52 52 52 52 53 53 54 54 55 56 56 57 58 58 59 59 60 61 61 62 63 63 63 64 65 66 66 66 66 66 66 66 67 67 68 68 69 69 70 71 72 73 74 75 75 75 75 75 75 75 75 75 76 76 77 76 76 76 77 78 78 78 76 75 75 75 75 74 72 70 67 64 60 56 54 53 52
49 49 49 50 50 51 51 52 52 52 53 53 53 53 53 54 54 55 55 56 57 57 58 59 60 61 62 62 63 63 64 64 65 66 66 66 66 66 67 67 68 69 69 69 70 71 72 73 74 75 76 76 76 75 75 75 75 75 75 75 75 76 77 77 77 77 77 77 77 76 75 74 73 74 74 73 71 69 66 63 59 55 52 51 50
50 50 51 51 51 51 52 52 53 53 53 53 53 53 53 54 54 55 55 56 57 58 59 60 61 61 62 62 63 63 64 64 65 66 66 67 67 67 68 69 70 71 71 71 72 73 74 75 76 76 76 76 76 75 75 75 75 75 75 75 75 75 77 78 77 77 77 77 75 74 73 73 72 73 74 73 70 68 65 62 59 55 52 50 49
52 52 52 52 52 52 53 53 54 54 54 55 55 55 55 55 55 56 57 57 58 59 60 61 61 62 62 63 63 64 64 65 65 66 67 68 68 69 70 71 72 72 72 73 74 75 76 76 76 76 76 77 76 76 75 75 75 75 75 74 74 75 76 77 78 77 77 76 74 73 73 73 72 73 73 71 69 66 63 60 58 55 52 49 48
54 54 54 54 54 54 54 55 56 56 56 57 57 58 58 58 58 59 59 60 61 61 61 62 62 63 63 64 64 65 65 66 67 68 69 69 70 71 72 72 73 73 74 74 75 76 77 77 76 76 76 76 76 76 75 75 75 75 75 75 75 76 76 77 77 77 76 75 74 74 74 73 72 72 72 70 67 64 61 59 58 56 52 48 47
56 56 56 56 56 56 56 57 57 58 59 59 60 60 61 61 61 61 62 62 62 62 63 63 64 64 65 65 65 66 66 67 68 69 70 71 71 72 72 73 73 74 75 76 76 77 77 77 76 76 76 77 76 76 76 75 75 75 75 75 76 76 77 77 77 77 75 74 74 75 75 74 72 71 70 68 65 62 60 58 58 56 52 48 45
59 59 59 59 59 59 59 59 60 60 61 62 62 63 63 63 63 63 63 63 64 64 64 64 65 65 66 66 66 67 68 69 70 70 71 71 72 72 73 74 75 76 76 76 77 77 77 76 76 76 77 77 76 76 76 76 75 75 76 76 76 77 77 78 77 76 75 75 75 75 75 74 72 71 69 66 63 61 58 57 57 55 51 47 44
61 61 61 62 62 63 63 63 63 63 64 64 65 65 65 65 65 65 65 64 64 65 65 65 65 66 66 66 67 68 69 70 71 71 71 72 73 74 75 75 76 77 76 76 76 77 76 76 77 77 77 77 76 76 76 76 76 76 76 77 77 78 78 78 77 77 76 76 76 76 75 73 72 70 67 64 62 59 58 57 55 53 49 46 43
64 64 64 65 66 66 67 67 66 66 66 67 67 67 67 67 67 66 65 65 65 65 65 65 66 66 67 67 68 69 70 71 72 73 74 75 76 77 77 77 77 77 76 76 77 77 77 77 77 77 77 77 77 77 77 77 77 77 78 78 78 79 79 79 78 77 77 77 76 75 74 73 71 68 65 62 60 58 57 56 54 51 47 45 43
67 67 68 68 69 70 70 70 69 68 68 68 68 69 69 69 69 68 67 67 66 66 67 67 67 67 68 69 70 71 72 74 75 76 77 78 79 79 79 78 77 77 77 77 77 77 77 77 77 78 78 78 78 77 78 78 78 79 79 79 79 79 79 79 78 78 78 77 76 75 73 71 68 66 63 61 59 57 56 54 52 49 46 44 43
70 71 71 72 73 73 73 73 72 71 70 70 70 70 71 71 71 71 70 70 70 69 69 69 70 70 71 73 74 75 76 77 78 79 79 80 80 79 79 78 78 78 78 78 78 78 78 78 78 78 78 78 78 78 79 79 80 80 80 80 80 79 79 78 78 78 78 77 75 74 71 69 66 64 62 59 57 57 55 52 49 47 45 43 42
74 74 75 76 76 76 76 76 75 74 74 73 73 73 73 73 73 73 73 72 72 72 72 73 73 74 75 76 77 79 79 80 80 80 80 80 80 79 79 79 78 78 78 78 79 79 79 79 79 79 79 79 79 80 80 81 81 81 80 80 80 79 79 78 78 78 77 76 74 71 69 66 64 62 60 58 57 56 53 49 46 45 43 42 42
77 78 78 79 79 79 79 79 78 78 77 76 75 75 75 75 75 75 75 75 75 75 76 76 77 77 78 79 80 81 81 81 81 81 81 81 80 80 80 79 79 79 80 80 80 80 80 80 79 80 80 80 81 81 82 82 81 81 81 80 80 79 79 78 78 77 75 73 71 69 67 65 63 61 59 59 57 54 49 46 44 43 42 43 43
80 81 81 81 81 81 81 81 80 80 79 78 78 77 77 77 77 77 78 78 78 79 79 79 80 80 81 82 82 83 83 83 83 82 82 82 82 81 81 81 81 81 81 81 82 81 81 81 81 81 81 82 82 82 82 82 82 81 80 80 80 79 78 78 76 75 73 71 69 67 66 64 63 61 60 58 54 50 46 44 44 43 43 44 44
83 83 83 83 82 82 82 81 81 80 80 79 79 79 79 79 80 80 80 81 81 82 82 82 83 83 84 84 84 84 84 84 84 84 84 84 83 83 83 83 83 83 83 83 83 83 83 83 83 83 83 83 83 83 83 82 81 81 80 79 79 78 77 76 74 72 71 69 68 67 67 65 63 60 57 53 49 45 44 44 44 44 44 45 44
84 84 83 83 82 82 81 81 80 80 80 81 81 81 82 82 82 83 83 84 84 84 85 85 85 86 86 86 87 87 87 87 86 86 86 85 85 85 85 85 85 85 84 84 85 84 84 85 84 84 84 84 84 83 82 81 80 80 79 78 77 76 75 73 72 70 69 68 68 68 67 63 59 55 52 48 45 44 44 44 45 44 45 45 44
85 84 83 82 82 81 81 81 82 82 83 83 84 84 85 85 86 86 87 87 87 87 88 88 88 89 89 89 89 89 89 89 89 88 88 88 87 87 87 86 86 86 86 86 86 86 86 85 85 85 85 84 83 82 81 80 79 78 77 76 76 75 73 72 70 69 68 67 67 66 63 58 54 51 48 46 44 43 44 44 44 44 45 44 43
84 84 84 83 83 83 84 84 85 85 86 87 87 87 88 88 89 89 90 90 91 91 91 91 91 92 92 92 92 92 92 92 91 91 90 89 88 88 87 87 87 87 87 87 87 87 86 85 85 84 84 82 81 80 79 78 77 76 76 75 74 73 72 70 69 68 66 65 64 61 57 53 50 49 48 45 43 43 44 45 45 45 45 43 42
85 85 86 86 87 87 88 89 89 90 90 90 91 91 91 92 92 93 93 94 94 94 94 94 94 94 94 94 94 93 93 92 92 91 90 90 89 88 88 88 88 88 88 88 87 86 85 84 84 83 82 80 79 79 78 77 76 75 74 74 73 72 70 69 67 66 64 62 60 58 54 51 50 50 49 46 43 43 44 45 45 45 44 43 42
88 89 89 90 91 92 92 93 93 94 94 94 94 94 95 95 95 95 96 96 96 96 96 96 95 95 95 94 94 94 93 93 92 92 91 91 91 90 90 90 89 89 88 87 86 85 84 82 81 81 80 79 79 78 77 76 75 74 73 72 70 69 67 66 64 63 61 59 58 55 53 51 51 51 49 45 43 43 44 45 45 45 43 42 42
91 92 93 94 94 95 95 95 96 96 96 96 96 97 97 97 97 97 97 97 97 97 97 97 96 96 96 96 96 95 95 95 94 94 93 92 92 91 90 90 89 88 87 85 84 83 81 80 80 79 78 78 78 77 76 74 73 71 70 69 67 65 64 63 61 60 59 57 56 54 52 51 51 49 46 43 42 43 44 45 45 44 43 42 42
Wind_Direction
254 255 256 257 259 260 261 262 262 263 264 266 267 268 270 272 273 273 274 275 276 277 277 278 279 280 281 282 283 284 285 286 287 287 288 288 289 290 291 292 293 294 294 295 296 296 297 299 301 302 303 304 305 307 307 308 309 309 310 311 311 311 312 312 312 313 313 314 314 315 315 315 316 316 316 317 317 318 318 319 319 319 319 319 319
254 255 256 257 258 259 260 261 262 263 264 265 267 268 269 270 271 272 273 274 275 276 276 277 279 280 281 282 283 284 285 286 286 287 287 288 289 290 291 292 293 293 294 294 295 296 298 300 302 303 303 305 306 307 308 308 309 310 310 311 311 311 312 312 312 313 313 314 314 315 315 315 316 316 316 317 318 318 319 320 320 319 319 320 321
254 255 256 256 257 258 259 260 261 262 263 265 266 267 267 268 269 271 272 274 274 275 276 277 279 280 281 282 283 284 284 285 285 286 287 288 290 291 291 292 292 293 293 294 296 298 300 301 302 303 304 305 306 307 308 309 310 310 311 311 311 311 311 311 312 313 313 314 314 315 315 316 316 316 317 318 319 320 320 320 320 319 320 322 323
255 256 257 257 258 258 259 260 261 262 263 264 265 266 267 268 269 271 272 273 274 275 276 278 279 280 281 282 282 283 284 284 285 286 287 289 290 291 291 291 292 292 293 295 297 299 300 301 302 303 304 305 307 308 308 309 310 310 310 311 311 311 311 311 312 313 314 315 315 316 316 316 317 317 318 319 320 321 321 320 320 321 322 323 324
256 256 257 258 258 259 260 261 262 263 264 264 265 266 268 269 270 271 272 273 274 275 276 278 279 280 280 281 282 283 284 284 286 287 288 289 289 290 290 291 291 293 294 296 298 299 300 301 302 303 304 306 307 308 309 309 310 310 310 310 310 311 311 311 312 313 314 315 316 316 317 317 317 318 319 320 321 321 320 320 321 323 324 324 324
256 257 258 258 259 260 261 262 263 264 265 266 267 268 269 270 270 271 272 273 274 275 277 278 278 279 280 281 282 283 284 285 286 287 288 288 288 288 289 290 292 294 296 297 298 299 300 301 302 304 305 307 308 309 309 309 310 309 309 310 311 311 312 312 313 314 315 316 317 317 317 318 318 320 321 321 321 320 320 320 322 324 324 324 324
256 257 258 258 259 260 262 263 264 265 266 266 267 268 269 269 270 271 272 273 274 275 276 277 278 279 280 281 282 283 284 285 286 286 286 286 287 288 289 291 293 295 296 297 298 299 300 302 303 305 306 308 309 309 309 309 309 309 309 311 312 312 312 313 314 315 316 317 317 318 318 319 320 321 321 321 321 321 321 322 323 324 325 324 324
256 257 258 259 260 261 262 263 264 265 266 266 267 267 268 269 270 271 272 273 274 275 276 277 277 279 280 281 282 282 283 284 284 285 285 286 287 288 290 292 293 295 296 297 298 299 301 302 304 305 307 308 308 308 308 308 308 309 310 311 312 312 313 314 315 316 316 317 317 318 319 320 320 321 321 321 321 321 322 324 324 325 325 325 326
257 258 259 260 261 261 262 263 264 265 265 266 267 267 268 269 270 271 272 273 274 274 275 276 277 278 279 280 281 282 282 283 283 284 285 286 287 289 291 292 293 294 295 296 298 300 301 303 305 306 307 308 307 307 308 308 308 309 311 311 312 313 314 315 315 316 316 317 317 318 319 320 320 320 320 320 321 322 323 324 325 325 326 327 327
257 258 259 260 260 261 261 262 263 264 264 265 266 267 268 269 270 271 271 272 273 274 275 275 276 277 278 279 280 281 281 282 283 284 285 287 288 290 291 292 293 294 295 297 299 300 302 304 306 307 307 307 307 307 307 308 309 310 311 311 313 314 314 315 315 315 316 317 318 318 319 320 320 320 320 321 322 323 324 324 325 325 326 327 328
256 257 258 258 259 260 260 261 261 262 263 264 265 266 267 267 268 269 270 271 272 273 274 274 275 277 277 278 279 280 281 282 283 285 286 288 289 290 291 292 293 294 296 298 300 302 303 305 305 306 306 306 307 307 307 308 309 310 311 312 313 314 314 314 314 315 316 317 318 318 319 319 319 320 320 322 323 324 324 324 325 326 327 328 329
256 256 257 257 258 259 259 260 260 261 262 263 264 264 265 266 267 268 269 270 271 272 273 274 275 276 277 278 279 280 281 283 284 286 287 288 289 290 291 292 293 295 297 299 301 303 304 304 304 305 306 306 307 307 308 308 309 310 311 312 313 313 313 314 314 315 316 317 317 318 318 319 319 320 321 322 323 324 324 324 326 327 328 329 330
255 255 256 256 257 257 258 259 260 260 261 262 263 264 265 266 267 268 269 270 271 272 273 274 275 276 277 279 281 282 283 284 285 286 287 288 289 290 291 293 295 296 298 300 302 303 303 303 304 305 306 306 307 307 308 308 309 309 311 312 312 313 313 314 314 315 316 316 317 317 318 318 319 320 321 322 323 323 324 325 326 327 328 330 332
253 254 254 255 256 256 257 258 259 260 261 262 263 264 265 266 267 268 269 270 271 272 274 275 276 278 280 281 282 283 284 284 285 286 286 287 289 290 292 294 296 297 299 300 301 302 302 303 304 305 306 306 307 307 307 307 308 309 310 311 312 312 313 313 314 314 315 316 316 317 318 319 320 321 322 322 323 323 324 326 327 328 329 332 334
253 254 254 255 255 256 258 259 260 261 262 263 263 264 266 267 268 269 270 271 272 274 275 277 279 281 282 282 282 283 283 284 285 286 287 288 290 292 293 295 296 298 299 300 301 301 302 304 305 305 306 306 306 306 306 306 307 308 310 311 312 312 312 312 313 313 314 315 316 317 318 319 320 321 321 322 323 324 325 326 327 329 331 333 335
253 254 254 255 256 257 258 259 260 261 262 263 264 265 266 268 269 270 271 272 274 276 278 279 280 281 281 281 282 282 283 284 285 286 288 290 291 293 294 295 296 297 298 299 301 302 303 304 304 305 305 305 305 304 304 305 306 308 309 311 311 311 311 311 312 313 314 314 315 317 318 319 320 321 321 322 323 325 326 327 328 330 332 334 336
253 254 255 255 256 257 258 259 260 261 262 264 265 266 267 269 270 271 273 275 277 278 279 280 280 280 280 281 282 283 284 285 286 288 290 291 292 293 294 295 296 297 298 300 301 301 302 303 304 304 305 304 303 303 303 304 306 307 309 310 310 310 310 311 312 312 313 314 315 317 318 319 320 320 321 322 324 325 326 327 328 331 333 334 336
254 255 255 256 257 258 259 260 261 263 264 265 267 268 269 271 272 274 276 277 278 279 279 279 280 280 281 282 283 284 285 286 288 289 291 292 292 293 294 295 296 297 298 299 300 301 302 303 303 303 303 302 301 301 303 304 306 307 308 308 308 309 310 311 311 312 313 314 316 317 318 319 319 320 321 322 324 325 326 327 329 331 333 334 336
255 256 257 258 259 260 261 262 264 265 266 267 269 270 272 273 275 276 277 278 278 279 279 280 280 281 282 283 284 285 286 288 289 289 290 291 292 293 294 295 296 297 298 299 300 301 301 302 302 301 300 299 300 301 303 304 305 306 307 307 308 309 310 310 311 312 313 314 316 317 318 318 319 320 321 323 324 325 326 328 330 332 333 334 335
256 258 259 260 261 262 263 264 265 266 268 269 270 272 273 275 275 276 277 278 278 279 280 281 281 282 283 284 285 285 286 287 288 289 290 291 292 292 293 294 295 296 298 299 299 300 300 301 300 298 298 298 300 301 303 304 304 305 306 307 308 309 309 309 310 311 313 314 316 317 317 318 319 320 322 323 324 325 326 328 330 331 333 334 334
258 259 260 262 263 264 265 265 266 268 269 270 272 273 274 275 275 276 277 278 279 280 280 281 281 282 283 284 285 285 286 287 288 289 290 290 291 292 292 294 295 296 297 297 298 299 299 298 297 296 297 298 300 301 302 303 304 305 306 307 308 308 308 309 310 311 313 314 315 316 317 317 319 320 322 323 323 325 327 328 330 331 332 333 334
260 261 262 263 265 266 267 268 269 270 271 272 273 273 274 275 276 277 278 278 279 280 280 281 282 283 283 284 285 286 286 287 287 288 289 289 290 291 292 293 294 295 296 296 297 297 297 296 295 296 297 298 299 300 301 302 303 305 306 307 307 308 308 309 310 311 313 314 315 316 316 317 319 320 322 322 324 325 327 328 329 331 331 332 333
262 263 264 265 266 267 268 269 270 271 271 272 273 274 275 276 277 277 278 279 279 280 281 281 282 283 283 284 284 285 285 286 286 287 288 289 290 291 292 293 294 294 295 295 296 295 294 294 295 296 297 298 299 300 301 302 304 305 306 306 307 307 308 309 310 311 312 313 314 315 316 318 319 320 321 323 324 326 327 328 329 330 330 331 332
263 264 265 266 267 268 269 270 270 271 272 273 274 275 275 276 277 278 278 279 280 280 281 282 282 282 283 283 283 284 284 285 286 286 287 288 289 290 291 292 293 293 293 294 294 293 293 294 295 296 296 297 298 300 301 302 304 304 305 306 306 307 308 309 310 311 312 313 314 315 316 318 319 320 321 323 324 325 327 328 328 329 329 330 331
264 265 266 267 268 269 270 270 271 272 272 273 274 274 275 276 276 277 278 279 280 281 281 282 282 282 282 283 283 283 284 284 285 286 287 288 289 290 290 291 291 291 292 292 292 291 292 294 294 295 296 297 298 299 301 302 303 304 305 306 306 307 308 309 310 311 312 313 314 315 316 317 318 320 321 323 324 325 327 328 328 327 328 329 330
264 265 266 267 268 269 270 270 271 272 273 273 274 275 276 277 278 279 280 280 281 281 282 282 282 282 282 282 282 283 283 284 285 285 286 288 288 288 288 289 289 290 291 290 290 291 292 293 294 294 296 297 298 299 301 302 303 304 304 305 306 306 307 308 310 310 311 312 313 315 316 317 318 319 321 322 324 325 326 327 327 326 327 328 329
263 265 266 267 268 270 271 272 273 274 275 276 277 278 279 280 280 281 281 281 281 282 281 281 281 281 281 281 282 282 283 284 284 285 286 286 286 286 287 288 289 289 289 289 289 291 292 292 293 295 296 297 298 300 301 302 303 303 304 305 305 306 307 308 309 310 310 312 313 315 316 317 318 319 320 322 324 325 326 326 326 325 325 326 328
266 268 269 271 272 273 274 275 276 276 277 278 279 280 280 281 281 281 281 281 281 281 281 281 281 281 281 281 281 282 283 283 284 284 284 284 285 286 287 288 288 288 288 288 289 290 291 292 294 295 296 297 299 300 301 301 302 302 303 304 305 306 307 308 308 309 310 311 313 314 315 316 317 318 320 322 323 324 324 324 325 324 324 325 326
270 271 272 273 274 275 275 276 276 277 278 278 279 280 280 280 280 280 280 281 281 281 281 280 280 280 280 281 282 282 282 283 282 282 283 284 285 286 286 286 287 287 288 288 289 291 292 293 295 296 297 298 299 300 300 300 301 302 303 304 305 305 306 307 308 309 310 311 313 314 315 315 316 318 319 321 322 323 322 323 324 324 323 323 324
271 272 273 274 275 275 276 276 277 277 278 278 279 279 279 280 280 280 280 280 280 280 280 280 280 281 281 281 282 282 282 282 282 282 283 284 285 285 286 286 287 287 288 288 290 291 293 294 295 296 297 297 298 298 299 300 301 302 303 304 305 305 306 307 308 309 310 311 312 313 314 314 316 317 318 320 321 321 320 322 323 323 321 321 322
274 275 275 276 276 276 276 277 277 277 278 278 278 279 279 279 280 280 280 280 281 281 281 281 281 281 281 282 282 282 282 282 282 283 284 285 285 286 287 287 287 288 288 289 291 292 293 294 294 295 296 296 297 298 299 300 301 302 303 304 304 305 306 307 308 309 310 311 311 312 313 314 315 315 317 318 319 319 318 320 322 322 319 319 320
277 277 277 277 277 277 277 277 278 278 279 279 279 279 280 280 280 281 281 282 282 282 282 282 282 282 282 282 282 283 283 283 283 284 285 286 286 287 287 287 288 289 289 290 291 292 293 293 294 294 295 296 298 299 300 300 301 302 303 304 304 305 305 307 308 309 309 310 311 311 312 313 313 313 314 315 316 316 317 319 321 321 318 317 318
276 276 276 277 277 277 278 278 279 279 280 280 280 280 281 281 282 282 283 283 283 283 283 282 282 282 282 282 282 283 283 283 284 284 285 286 287 287 287 288 289 290 290 291 291 291 292 292 293 295 296 297 298 300 300 300 301 302 303 304 304 304 305 306 308 309 309 309 310 310 310 310 310 310 311 313 313 314 315 317 320 320 316 314 316
275 275 276 276 277 278 279 279 280 280 280 280 280 281 281 282 283 283 284 284 284 283 283 282 282 281 281 282 282 282 282 283 284 285 285 286 287 287 287 288 289 289 290 290 290 290 291 293 294 296 297 298 299 299 300 301 301 302 303 303 303 303 304 306 307 307 308 308 309 308 308 307 307 308 309 310 311 312 314 315 318 318 315 312 313
274 274 275 276 278 279 280 280 281 281 281 281 281 282 282 283 284 284 284 284 284 283 283 282 281 281 281 281 282 282 283 283 284 285 285 286 286 287 287 288 288 288 288 289 290 291 293 294 296 297 297 298 299 299 300 301 302 302 302 302 303 303 304 305 305 306 306 307 306 306 305 305 305 306 307 308 309 311 312 314 316 316 313 309 309
276 277 277 278 280 281 282 282 283 283 283 283 283 284 284 284 285 285 285 284 284 283 282 281 281 280 281 282 282 282 283 283 283 284 285 285 286 286 287 287 287 287 289 290 292 293 294 296 297 297 298 298 299 300 300 301 301 301 301 302 302 303 303 303 304 304 305 305 304 303 303 304 304 304 305 306 307 310 311 312 313 314 311 306 306
279 280 281 281 282 284 284 285 285 285 285 285 285 285 284 284 284 284 284 283 282 281 280 280 280 280 281 281 281 281 282 282 283 284 285 285 285 286 286 286 287 289 291 293 294 295 296 296 297 297 298 298 299 299 300 300 300 301 301 301 302 302 302 302 302 303 303 302 301 301 302 302 302 303 303 304 306 308 309 310 311 311 308 304 303
281 282 283 283 284 285 286 286 286 286 285 285 284 284 283 283 283 283 282 281 280 280 279 279 279 279 280 280 280 281 281 282 283 284 284 284 284 285 286 287 290 292 294 294 295 296 296 297 297 297 297 298 298 299 299 300 300 300 300 301 300 300 300 300 301 301 301 300 300 300 300 300 301 301 302 303 305 306 307 308 309 307 304 301 301
282 282 283 284 285 285 286 286 286 286 285 284 284 284 284 284 283 283 282 281 280 279 279 279 279 279 280 280 280 281 281 282 283 283 283 283 284 285 288 290 292 294 295 295 295 296 296 296 296 297 297 298 298 298 299 299 299 299 299 299 299 299 299 299 299 299 299 299 298 298 299 299 299 300 301 302 303 304 305 306 306 304 301 298 298
281 282 283 284 284 285 285 286 286 286 286 285 285 285 285 285 285 284 284 283 282 281 280 280 281 281 280 280 280 280 280 281 281 282 283 284 286 288 290 292 294 295 295 295 295 295 296 296 296 297 297 297 298 298 298 298 298 298 298 297 297 297 297 297 297 297 297 297 297 297 297 298 298 299 300 300 300 302 304 304 303 301 298 296 297
281 282 283 283 284 285 286 287 287 288 287 286 286 285 285 285 285 285 285 284 284 283 283 282 282 281 280 280 280 279 280 281 282 283 285 286 288 290 291 293 294 295 294 294 295 295 295 296 296 296 296 296 296 297 297 297 297 296 296 295 295 295 295 295 295 295 295 296 296 296 296 297 297 298 298 297 298 300 302 301 299 298 296 294 295
281 282 283 284 285 286 287 287 288 288 287 286 286 285 285 285 285 284 284 284 284 283 282 282 281 280 279 279 279 279 280 281 283 284 286 287 289 291 292 293 294 294 294 294 294 295 295 296 296 295 295 295 295 295 295 295 295 294 294 294 294 294 294 294 294 294 294 294 294 294 295 295 296 296 295 295 296 299 299 296 295 295 294 293 295
282 283 284 285 286 286 287 287 287 287 286 286 285 284 284 284 283 283 283 282 282 281 281 280 280 279 279 279 280 280 282 283 284 286 287 289 290 292 293 293 293 293 293 294 294 294 294 295 294 294 294 294 294 294 294 294 293 293 293 293 293 292 292 292 292 292 293 293 293 293 293 294 294 293 292 293 296 297 294 292 292 293 293 293 295
283 284 284 285 286 286 287 287 287 286 286 285 285 284 283 283 283 282 282 282 281 281 280 280 280 280 280 281 281 282 283 285 286 287 289 290 291 292 293 293 293 293 293 293 293 293 294 294 294 294 294 293 293 293 292 292 292 292 292 291 291 291 291 291 291 292 292 292 292 292 291 292 292 291 292 293 294 292 289 289 291 291 291 293 295
283 284 284 285 285 285 286 285 285 285 285 284 284 283 283 283 282 282 282 281 281 281 281 281 281 281 282 283 283 284 285 286 288 289 290 291 292 292 293 292 292 292 292 292 292 293 293 293 293 293 293 292 292 291 291 291 291 290 290 290 290 290 290 291 291 291 290 290 290 289 290 291 291 291 292 293 290 286 285 287 289 289 290 292 294
283 283 283 284 284 283 283 283 283 283 283 283 283 283 282 282 282 282 282 282 282 282 282 282 283 283 284 285 285 286 287 288 289 290 291 291 292 292 292 291 291 291 291 291 292 292 292 292 292 291 291 290 290 290 290 290 289 289 289 289 289 289 289 289 289 288 288 288 287 287 288 289 289 289 290 289 285 281 283 287 288 288 289 291 293
282 282 282 282 282 282 282 282 282 282 282 282 282 282 282 283 283 283 283 283 283 283 284 284 285 285 286 287 287 288 289 289 290 290 291 291 291 291 290 290 290 291 291 291 291 291 291 291 290 289 289 289 289 289 289 288 288 288 288 288 288 288 288 287 287 286 286 286 286 286 287 286 285 285 287 286 280 279 283 286 287 287 288 289 292
281 281 281 281 282 282 282 282 282 282 282 282 282 282 282 283 283 283 284 284 285 285 285 286 286 287 287 288 288 289 289 289 290 290 290 290 290 290 290 290 290 290 290 290 290 290 289 289 288 288 288 288 288 287 287 287 287 287 287 287 287 286 286 286 286 285 285 285 284 284 284 283 280 282 285 283 279 279 283 285 285 286 287 289 291
280 280 281 281 281 281 281 281 281 282 282 282 283 283 284 284 285 285 286 286 286 287 287 287 288 288 288 288 288 288 288 288 289 289 289 289 289 289 289 289 289 289 289 289 288 288 288 287 287 287 287 287 286 286 286 286 286 286 286 285 285 285 285 285 285 284 284 284 283 282 281 279 278 280 283 281 278 279 283 284 284 284 286 288 290
279 279 280 280 280 281 281 281 282 282 283 284 285 285 286 286 286 287 287 287 287 287 287 287 287 287 287 288 288 288 288 288 289 289 289 289 289 288 288 288 288 287 287 287 287 287 287 286 286 286 286 286 285 285 285 285 285 285 284 284 284 284 284 283 283 282 282 281 280 280 279 277 278 279 280 278 277 279 282 282 282 283 285 287 289
279 279 280 281 281 282 282 283 284 284 285 286 286 287 287 287 287 287 287 287 287 287 287 287 287 287 287 287 288 288 288 288 287 287 287 287 287 286 286 286 286 286 286 286 286 286 286 285 285 285 284 284 284 284 284 284 284 283 283 283 283 283 282 282 281 281 280 279 278 277 276 276 277 278 277 276 277 279 280 280 279 281 283 286 288
Height
5811 5811 5811 5812 5812 5812 5812 5811 5811 5811 5810 5810 5810 5810 5810 5809 5808 5806 5805 5804 5803 5802 5801 5799 5797 5796 5795 5793 5791 5789 5787 5785 5783 5781 5779 5776 5774 5772 5770 5767 5765 5763 5760 5758 5756 5754 5752 5749 5746 5743 5740 5737 5734 5731 5727 5723 5720 5716 5712 5709 5705 5701 5697 5693 5691 5689 5685 5678 5672 5668 5663 5659 5655 5650 5647 5643 5637 5630 5623 5616 5610 5603 5595 5587 5580
5806 5806 5806 5806 5806 5806 5806 5805 5805 5805 5804 5804 5804 5804 5804 5803 5802 5800 5799 5799 5797 5796 5795 5793 5791 5790 5788 5787 5785 5783 5781 5779 5777 5775 5772 5770 5768 5766 5764 5761 5759 5757 5754 5752 5750 5748 5745 5743 5740 5737 5734 5730 5727 5724 5720 5716 5713 5709 5705 5701 5697 5693 5689 5686 5682 5681 5678 5672 5666 5662 5657 5652 5648 5644 5640 5636 5631 5625 5618 5610 5603 5596 5589 5580 5571
5800 5800 5800 5801 5801 5800 5800 5800 5799 5799 5799 5799 5798 5798 5798 5797 5796 5794 5793 5793 5792 5790 5789 5787 5785 5784 5782 5780 5779 5776 5775 5772 5770 5768 5766 5764 5762 5759 5757 5755 5753 5751 5748 5746 5744 5741 5739 5736 5733 5730 5727 5723 5720 5717 5713 5709 5705 5701 5697 5694 5690 5686 5681 5678 5674 5671 5670 5666 5660 5655 5650 5645 5640 5636 5632 5628 5623 5617 5611 5605 5597 5589 5582 5575 5567
5794 5794 5794 5795 5795 5794 5794 5794 5794 5793 5793 5793 5793 5792 5792 5791 5790 5789 5788 5787 5786 5784 5783 5781 5779 5778 5776 5774 5772 5770 5768 5766 5764 5762 5760 5758 5755 5753 5751 5749 5747 5745 5742 5740 5738 5735 5732 5729 5726 5723 5720 5716 5713 5710 5706 5702 5698 5694 5690 5686 5683 5679 5674 5670 5666 5663 5660 5658 5653 5647 5643 5638 5632 5628 5624 5620 5615 5609 5602 5597 5590 5583 5574 5565 5559
5788 5788 5789 5789 5789 5789 5788 5788 5788 5788 5787 5787 5786 5786 5785 5785 5784 5783 5782 5780 5779 5778 5776 5775 5773 5771 5769 5767 5765 5763 5762 5760 5758 5756 5754 5751 5749 5747 5745 5743 5740 5738 5736 5734 5731 5728 5725 5722 5719 5716 5713 5709 5706 5702 5698 5694 5691 5686 5683 5679 5676 5671 5667 5663 5659 5655 5651 5649 5646 5640 5635 5629 5624 5618 5614 5611 5608 5603 5598 5590 5582 5575 5567 5558 5548
5782 5783 5783 5783 5783 5783 5783 5782 5782 5782 5781 5781 5780 5780 5779 5778 5778 5777 5775 5774 5773 5771 5770 5768 5766 5764 5762 5761 5759 5757 5755 5753 5751 5749 5747 5745 5743 5741 5739 5736 5734 5732 5730 5727 5725 5722 5719 5716 5713 5709 5706 5702 5699 5695 5690 5687 5683 5679 5675 5672 5669 5664 5660 5655 5651 5648 5643 5640 5636 5633 5628 5622 5616 5611 5604 5599 5596 5593 5591 5588 5580 5571 5562 5553 5545
5776 5776 5777 5777 5777 5777 5777 5776 5776 5776 5775 5775 5774 5773 5773 5772 5771 5770 5768 5767 5766 5764 5763 5761 5759 5758 5756 5754 5752 5750 5749 5747 5745 5743 5741 5739 5737 5735 5732 5730 5728 5726 5723 5721 5718 5715 5712 5709 5706 5702 5699 5695 5691 5687 5683 5679 5676 5672 5668 5665 5661 5657 5652 5648 5644 5640 5636 5632 5628 5624 5620 5614 5608 5603 5597 5591 5585 5579 5576 5575 5573 5568 5560 5548 5539
5770 5770 5771 5771 5771 5771 5771 5770 5770 5769 5769 5768 5768 5767 5766 5765 5764 5763 5762 5760 5759 5758 5756 5754 5752 5751 5749 5747 5746 5744 5742 5740 5738 5736 5734 5732 5730 5728 5726 5724 5722 5719 5717 5714 5711 5708 5705 5702 5699 5696 5692 5688 5684 5680 5676 5672 5668 5665 5661 5657 5654 5650 5645 5640 5636 5632 5628 5624 5620 5616 5612 5606 5601 5596 5590 5585 5579 5572 5565 5560 5557 5555 5551 5542 5529
5764 5764 5764 5765 5764 5764 5764 5764 5763 5763 5762 5762 5761 5760 5759 5758 5757 5756 5755 5754 5752 5751 5749 5747 5746 5744 5742 5741 5739 5737 5736 5734 5732 5730 5728 5726 5724 5722 5720 5718 5715 5713 5710 5707 5705 5702 5699 5696 5692 5689 5685 5681 5677 5673 5669 5666 5661 5657 5654 5650 5646 5642 5638 5633 5629 5625 5621 5617 5613 5608 5604 5598 5593 5589 5584 5578 5571 5565 5558 5552 5547 5542 5538 5534 5522
5757 5758 5758 5758 5757 5757 5757 5757 5757 5756 5756 5755 5755 5754 5753 5752 5750 5749 5748 5747 5745 5744 5742 5741 5739 5737 5736 5734 5732 5731 5729 5727 5725 5723 5721 5719 5718 5716 5713 5711 5709 5706 5704 5701 5698 5695 5692 5689 5685 5682 5678 5674 5671 5667 5663 5658 5655 5651 5646 5642 5639 5635 5631 5626 5622 5618 5615 5610 5605 5601 5597 5591 5585 5580 5577 5571 5564 5557 5550 5543 5539 5534 5528 5525 5519
5750 5750 5750 5750 5750 5750 5750 5750 5750 5749 5749 5748 5747 5746 5745 5744 5743 5742 5741 5740 5738 5737 5735 5734 5732 5731 5729 5727 5726 5724 5722 5720 5718 5717 5715 5713 5711 5709 5707 5705 5702 5700 5697 5694 5691 5688 5685 5682 5679 5675 5671 5668 5664 5660 5655 5651 5648 5644 5639 5635 5631 5628 5624 5620 5615 5611 5607 5603 5598 5593 5589 5584 5578 5573 5568 5564 5557 5550 5542 5535 5529 5524 5518 5511 5507
5742 5743 5743 5743 5743 5743 5742 5742 5742 5742 5741 5740 5740 5739 5738 5737 5736 5735 5734 5733 5731 5730 5729 5727 5725 5724 5722 5720 5719 5717 5715 5714 5712 5710 5708 5706 5704 5702 5700 5698 5696 5693 5690 5687 5684 5681 5678 5675 5672 5669 5665 5661 5657 5652 5648 5644 5640 5637 5632 5628 5624 5620 5616 5612 5608 5604 5600 5596 5591 5586 5582 5577 5571 5565 5560 5556 5552 5545 5537 5528 5521 5514 5508 5500 5493
5735 5735 5735 5735 5735 5735 5735 5735 5735 5734 5734 5733 5732 5731 5731 5730 5729 5728 5727 5725 5724 5723 5722 5720 5718 5717 5715 5714 5712 5710 5709 5707 5705 5703 5701 5699 5697 5696 5694 5691 5689 5686 5683 5680 5677 5675 5672 5669 5665 5662 5658 5654 5649 5645 5641 5637 5633 5630 5626 5622 5618 5613 5609 5604 5600 5596 5592 5589 5584 5578 5574 5569 5564 5558 5552 5547 5543 5538 5531 5524 5516 5507 5500 5492 5483
5727 5728 5728 5728 5728 5728 5727 5727 5727 5726 5726 5725 5725 5724 5723 5722 5721 5720 5720 5719 5718 5716 5715 5713 5712 5710 5709 5707 5705 5703 5701 5699 5698 5696 5694 5692 5691 5689 5687 5684 5682 5679 5676 5673 5671 5668 5665 5662 5658 5655 5651 5647 5642 5638 5634 5630 5626 5623 5619 5615 5611 5607 5602 5597 5593 5589 5584 5580 5576 5571 5566 5561 5556 5550 5545 5540 5535 5530 5524 5517 5511 5503 5494 5485 5475
5721 5721 5721 5720 5720 5720 5720 5720 5719 5719 5718 5718 5717 5717 5716 5716 5715 5714 5713 5712 5711 5710 5708 5707 5706 5704 5702 5700 5698 5696 5694 5692 5691 5689 5687 5686 5684 5682 5680 5677 5674 5672 5669 5666 5664 5661 5658 5655 5651 5648 5644 5639 5635 5631 5627 5623 5620 5617 5613 5608 5604 5600 5595 5591 5586 5582 5577 5573 5569 5564 5559 5554 5549 5543 5537 5533 5527 5521 5515 5508 5503 5496 5488 5480 5471
5714 5714 5714 5713 5713 5713 5712 5712 5712 5711 5711 5711 5711 5710 5710 5709 5708 5707 5707 5706 5705 5704 5702 5701 5699 5697 5695 5693 5691 5689 5687 5685 5684 5682 5680 5679 5677 5674 5672 5670 5667 5665 5662 5660 5657 5654 5650 5647 5644 5640 5636 5632 5628 5625 5621 5617 5614 5610 5606 5602 5598 5593 5589 5584 5579 5574 5570 5566 5561 5557 5552 5546 5541 5535 5530 5525 5520 5514 5507 5500 5495 5489 5481 5475 5467
5707 5707 5707 5706 5706 5706 5706 5706 5705 5705 5705 5705 5705 5704 5704 5703 5702 5701 5700 5700 5698 5697 5695 5694 5692 5689 5687 5685 5684 5682 5680 5679 5677 5676 5674 5672 5669 5667 5665 5663 5660 5658 5655 5653 5649 5646 5643 5640 5636 5633 5629 5625 5622 5618 5615 5611 5608 5604 5600 5596 5592 5587 5583 5578 5573 5567 5563 5559 5554 5550 5545 5539 5534 5528 5522 5517 5512 5506 5500 5494 5488 5481 5475 5468 5462
5699 5700 5699 5699 5699 5699 5699 5699 5699 5699 5699 5698 5698 5697 5697 5696 5695 5695 5694 5693 5691 5690 5688 5686 5684 5682 5681 5679 5677 5676 5674 5672 5670 5669 5667 5664 5662 5660 5657 5655 5653 5651 5648 5645 5642 5639 5636 5633 5629 5626 5622 5618 5615 5611 5609 5605 5602 5598 5594 5590 5586 5582 5577 5572 5567 5561 5556 5552 5548 5543 5538 5532 5527 5522 5516 5510 5504 5498 5493 5487 5481 5474 5468 5462 5456
5693 5693 5692 5692 5693 5693 5693 5693 5693 5692 5692 5691 5691 5690 5690 5689 5688 5688 5687 5685 5684 5682 5681 5679 5678 5676 5674 5672 5671 5669 5667 5665 5663 5661 5659 5657 5655 5652 5650 5648 5646 5644 5641 5638 5635 5632 5629 5626 5623 5619 5615 5611 5608 5605 5602 5599 5595 5591 5588 5584 5580 5575 5571 5566 5561 5556 5550 5545 5541 5537 5532 5526 5521 5515 5509 5503 5498 5492 5486 5479 5473 5468 5462 5455 5449
5686 5686 5686 5686 5686 5686 5686 5686 5686 5685 5684 5684 5684 5683 5683 5682 5681 5680 5679 5678 5676 5675 5674 5672 5671 5669 5668 5666 5664 5662 5660 5658 5656 5654 5652 5650 5647 5645 5642 5640 5638 5636 5634 5631 5628 5625 5622 5619 5616 5612 5608 5604 5601 5598 5595 5592 5588 5585 5581 5578 5573 5569 5564 5559 5554 5549 5544 5540 5535 5530 5526 5520 5514 5509 5503 5496 5491 5485 5479 5472 5466 5461 5455 5450 5444
5680 5680 5680 5680 5679 5679 5679 5679 5679 5678 5678 5677 5677 5676 5676 5674 5673 5673 5672 5671 5669 5668 5667 5666 5664 5663 5661 5660 5658 5656 5654 5651 5649 5647 5645 5642 5640 5637 5635 5633 5631 5629 5626 5624 5621 5618 5615 5612 5608 5604 5601 5598 5594 5591 5588 5584 5581 5578 5574 5570 5566 5562 5557 5552 5547 5542 5537 5533 5528 5523 5518 5513 5508 5502 5496 5490 5484 5479 5472 5466 5460 5454 5449 5444 5439
5673 5674 5674 5673 5673 5673 5672 5672 5672 5671 5671 5670 5670 5669 5668 5667 5667 5666 5665 5664 5663 5661 5660 5659 5658 5656 5655 5653 5651 5649 5647 5645 5641 5639 5637 5635 5632 5630 5628 5625 5624 5621 5619 5617 5614 5611 5608 5604 5600 5597 5594 5591 5587 5584 5581 5577 5574 5570 5567 5563 5559 5554 5550 5545 5540 5535 5530 5525 5520 5515 5511 5506 5500 5495 5489 5483 5477 5472 5466 5460 5454 5449 5443 5438 5433
5667 5667 5667 5666 5666 5666 5666 5665 5665 5664 5664 5663 5663 5662 5662 5661 5660 5659 5658 5657 5656 5655 5654 5653 5651 5650 5648 5646 5644 5642 5640 5638 5634 5631 5629 5627 5625 5623 5620 5618 5616 5614 5612 5609 5607 5603 5600 5596 5593 5590 5587 5583 5580 5577 5574 5570 5567 5563 5559 5555 5551 5546 5542 5537 5533 5528 5523 5518 5513 5508 5503 5498 5493 5488 5482 5477 5471 5465 5460 5455 5449 5443 5438 5433 5428
5660 5660 5660 5660 5660 5659 5659 5659 5658 5658 5657 5657 5656 5656 5655 5654 5654 5653 5652 5651 5650 5649 5648 5646 5644 5643 5641 5639 5637 5635 5632 5630 5627 5623 5621 5619 5618 5616 5613 5611 5609 5606 5604 5602 5599 5595 5592 5589 5586 5582 5579 5576 5573 5570 5566 5562 5559 5555 5551 5547 5543 5538 5534 5529 5525 5520 5515 5510 5506 5500 5495 5491 5486 5481 5475 5470 5464 5458 5453 5448 5443 5438 5433 5428 5422
5654 5654 5654 5653 5653 5653 5653 5652 5652 5652 5651 5651 5650 5650 5649 5648 5648 5647 5646 5645 5644 5642 5641 5639 5637 5635 5633 5631 5629 5627 5625 5622 5619 5616 5613 5612 5610 5609 5606 5604 5601 5599 5597 5594 5591 5587 5584 5581 5578 5574 5571 5568 5565 5561 5558 5555 5551 5547 5543 5539 5535 5530 5526 5522 5517 5513 5508 5503 5498 5493 5488 5483 5478 5474 5469 5463 5458 5452 5446 5440 5435 5431 5427 5423 5418
5648 5648 5648 5648 5647 5647 5647 5646 5646 5645 5645 5644 5644 5643 5643 5642 5641 5640 5639 5638 5637 5635 5634 5632 5630 5628 5626 5624 5621 5619 5617 5614 5612 5609 5606 5605 5603 5601 5598 5596 5594 5591 5589 5586 5582 5579 5576 5573 5570 5567 5563 5560 5557 5553 5550 5547 5543 5539 5535 5532 5528 5523 5519 5515 5510 5506 5501 5496 5491 5486 5481 5475 5471 5467 5462 5457 5452 5446 5441 5435 5429 5424 5420 5416 5412
5642 5642 5642 5642 5642 5641 5641 5640 5640 5639 5639 5638 5637 5637 5636 5635 5634 5633 5632 5631 5629 5628 5626 5624 5622 5620 5618 5616 5613 5611 5609 5607 5605 5602 5600 5598 5595 5592 5590 5589 5586 5583 5580 5577 5574 5571 5568 5565 5562 5559 5556 5552 5549 5546 5543 5539 5536 5532 5528 5524 5520 5516 5512 5508 5503 5498 5494 5489 5484 5479 5474 5468 5464 5460 5456 5451 5445 5440 5435 5431 5425 5420 5415 5411 5407
5637 5637 5637 5636 5636 5636 5635 5634 5634 5633 5632 5632 5631 5630 5629 5628 5627 5626 5625 5623 5622 5620 5619 5617 5615 5612 5610 5608 5606 5604 5602 5600 5598 5595 5592 5590 5587 5585 5583 5581 5578 5575 5572 5568 5565 5563 5560 5557 5554 5551 5547 5544 5541 5538 5535 5531 5528 5524 5520 5517 5513 5508 5504 5500 5496 5491 5486 5481 5476 5472 5467 5462 5457 5453 5449 5444 5439 5434 5430 5426 5421 5417 5412 5407 5403
5631 5631 5631 5631 5630 5629 5629 5628 5627 5626 5626 5625 5624 5623 5622 5621 5620 5618 5617 5615 5614 5612 5611 5609 5607 5604 5602 5600 5598 5596 5595 5593 5590 5586 5584 5582 5580 5578 5576 5572 5570 5567 5563 5560 5557 5555 5552 5549 5546 5543 5539 5536 5533 5530 5527 5523 5520 5516 5512 5509 5504 5500 5496 5492 5488 5483 5478 5473 5469 5464 5460 5455 5451 5446 5442 5438 5433 5429 5425 5420 5416 5412 5408 5404 5400
5625 5625 5625 5624 5624 5623 5622 5621 5620 5619 5619 5618 5617 5616 5614 5613 5612 5610 5609 5607 5606 5604 5603 5601 5598 5596 5594 5593 5590 5588 5586 5584 5580 5577 5575 5574 5571 5570 5567 5564 5561 5559 5555 5552 5549 5547 5545 5541 5538 5535 5531 5529 5525 5522 5518 5515 5511 5507 5504 5500 5496 5492 5488 5484 5479 5475 5470 5465 5460 5456 5452 5447 5443 5439 5434 5430 5427 5423 5420 5416 5411 5407 5403 5399 5395
5619 5619 5618 5617 5617 5616 5615 5614 5613 5612 5611 5610 5609 5608 5607 5605 5604 5602 5601 5599 5598 5596 5595 5593 5590 5588 5586 5584 5581 5579 5578 5575 5571 5569 5567 5565 5563 5561 5559 5556 5553 5550 5547 5544 5541 5539 5536 5533 5529 5527 5524 5520 5517 5513 5510 5506 5502 5499 5495 5491 5487 5483 5479 5475 5471 5466 5462 5457 5452 5448 5444 5440 5436 5431 5427 5424 5420 5417 5414 5410 5406 5402 5398 5394 5391
5612 5612 5611 5610 5610 5609 5607 5607 5606 5604 5603 5602 5601 5600 5598 5597 5595 5594 5592 5590 5589 5587 5586 5584 5582 5579 5577 5575 5573 5571 5569 5566 5563 5560 5559 5557 5555 5552 5550 5547 5544 5541 5539 5536 5533 5530 5527 5524 5521 5518 5515 5512 5508 5504 5500 5497 5493 5489 5486 5482 5478 5474 5469 5465 5462 5457 5453 5449 5445 5440 5436 5433 5429 5425 5421 5417 5414 5411 5407 5404 5401 5397 5394 5390 5386
5606 5605 5604 5604 5603 5601 5600 5599 5598 5596 5595 5594 5592 5591 5589 5588 5586 5585 5583 5582 5580 5578 5576 5575 5573 5570 5569 5567 5565 5562 5560 5557 5555 5552 5550 5548 5546 5543 5540 5538 5535 5532 5530 5527 5524 5521 5518 5515 5512 5509 5505 5502 5498 5495 5491 5487 5483 5480 5476 5473 5469 5464 5460 5456 5452 5449 5445 5441 5437 5433 5429 5425 5422 5418 5414 5411 5408 5404 5401 5398 5395 5392 5388 5385 5381
5599 5598 5597 5596 5595 5594 5593 5591 5590 5589 5587 5586 5584 5583 5581 5580 5578 5576 5575 5573 5571 5569 5567 5565 5563 5561 5559 5557 5555 5553 5550 5548 5546 5544 5541 5538 5536 5534 5531 5529 5526 5524 5521 5518 5514 5511 5508 5505 5502 5499 5495 5491 5488 5484 5481 5477 5474 5470 5467 5463 5459 5455 5451 5447 5443 5440 5436 5433 5429 5425 5422 5418 5415 5411 5408 5405 5402 5398 5395 5392 5389 5386 5383 5380 5376
5591 5591 5590 5589 5588 5586 5585 5584 5582 5581 5579 5577 5576 5574 5573 5571 5569 5568 5566 5564 5562 5560 5558 5556 5554 5552 5550 5548 5545 5543 5541 5539 5537 5534 5532 5529 5527 5525 5522 5520 5517 5514 5512 5508 5504 5501 5498 5495 5492 5488 5484 5481 5477 5474 5471 5468 5464 5461 5457 5453 5450 5446 5442 5438 5435 5432 5428 5424 5421 5418 5414 5411 5408 5404 5401 5398 5395 5392 5389 5386 5383 5380 5377 5374 5371
5582 5581 5581 5580 5579 5578 5577 5575 5574 5572 5570 5569 5567 5565 5564 5562 5560 5559 5557 5555 5553 5551 5549 5546 5544 5542 5540 5538 5536 5533 5531 5529 5527 5525 5523 5520 5518 5516 5513 5511 5507 5504 5501 5498 5494 5490 5487 5484 5481 5477 5473 5470 5467 5464 5461 5458 5455 5451 5448 5444 5440 5437 5433 5429 5426 5423 5420 5416 5413 5410 5406 5404 5400 5397 5394 5391 5388 5385 5382 5379 5377 5374 5372 5369 5366
5572 5572 5571 5570 5569 5568 5567 5566 5565 5563 5562 5560 5558 5557 5555 5553 5551 5550 5548 5546 5544 5542 5540 5538 5535 5533 5531 5529 5526 5523 5521 5520 5518 5516 5514 5511 5509 5506 5504 5501 5497 5494 5491 5488 5483 5479 5477 5473 5469 5466 5463 5460 5457 5454 5451 5448 5445 5442 5438 5434 5431 5427 5424 5420 5417 5414 5411 5408 5405 5401 5398 5395 5393 5389 5386 5383 5381 5378 5376 5373 5370 5368 5365 5363 5361
5563 5562 5561 5559 5559 5558 5557 5556 5555 5554 5553 5551 5549 5548 5546 5544 5542 5540 5539 5537 5535 5533 5531 5529 5526 5524 5522 5519 5516 5514 5512 5510 5508 5506 5504 5502 5499 5497 5494 5491 5487 5483 5480 5476 5471 5468 5466 5463 5459 5455 5452 5450 5447 5444 5441 5438 5435 5431 5428 5425 5421 5418 5414 5411 5408 5406 5403 5399 5396 5393 5390 5387 5384 5381 5379 5376 5373 5371 5369 5367 5364 5362 5359 5357 5355
5553 5552 5551 5549 5548 5547 5546 5546 5545 5544 5543 5541 5539 5537 5536 5534 5532 5530 5529 5527 5525 5523 5521 5519 5517 5514 5511 5509 5506 5503 5501 5499 5498 5496 5494 5491 5489 5486 5484 5480 5476 5472 5468 5464 5460 5457 5455 5452 5448 5445 5442 5440 5437 5434 5431 5428 5424 5421 5418 5415 5411 5408 5405 5402 5399 5396 5393 5390 5387 5384 5381 5378 5376 5373 5371 5368 5366 5364 5362 5360 5357 5355 5353 5351 5349
5543 5542 5541 5540 5539 5537 5536 5535 5534 5533 5531 5530 5528 5526 5524 5522 5521 5519 5518 5516 5514 5512 5510 5508 5506 5504 5500 5498 5496 5493 5490 5489 5487 5485 5482 5480 5477 5474 5472 5468 5464 5460 5457 5453 5450 5447 5444 5441 5438 5435 5432 5429 5426 5423 5420 5417 5414 5411 5408 5405 5402 5399 5395 5392 5389 5386 5383 5380 5378 5375 5372 5369 5367 5365 5363 5360 5358 5356 5354 5352 5350 5348 5346 5344 5343
5533 5532 5531 5530 5528 5527 5525 5523 5522 5521 5519 5518 5516 5514 5512 5511 5509 5508 5506 5504 5503 5501 5499 5497 5495 5493 5490 5487 5485 5482 5480 5479 5476 5473 5471 5469 5466 5462 5459 5456 5452 5449 5445 5442 5439 5436 5433 5431 5428 5425 5422 5419 5416 5412 5410 5407 5404 5401 5398 5395 5392 5389 5386 5382 5379 5376 5374 5371 5368 5366 5363 5361 5359 5356 5354 5353 5351 5349 5348 5345 5343 5342 5340 5338 5336
5523 5522 5520 5518 5517 5515 5513 5512 5510 5509 5507 5506 5504 5503 5501 5499 5498 5496 5494 5493 5491 5489 5488 5486 5484 5482 5479 5477 5474 5471 5470 5468 5465 5462 5460 5457 5454 5451 5448 5444 5441 5437 5433 5430 5428 5425 5422 5420 5417 5414 5411 5408 5405 5402 5399 5396 5394 5391 5388 5384 5381 5378 5375 5373 5369 5367 5364 5362 5359 5357 5354 5352 5350 5348 5346 5345 5343 5342 5340 5338 5337 5335 5333 5332 5330
5512 5510 5508 5506 5505 5503 5501 5500 5499 5497 5496 5494 5493 5491 5489 5488 5486 5484 5483 5481 5480 5478 5476 5475 5472 5470 5468 5466 5463 5461 5459 5456 5454 5451 5448 5445 5443 5440 5436 5432 5429 5425 5422 5419 5416 5414 5411 5409 5406 5403 5400 5397 5394 5391 5388 5385 5382 5380 5376 5373 5370 5367 5365 5362 5360 5357 5354 5352 5350 5348 5346 5344 5342 5340 5338 5337 5335 5334 5333 5331 5330 5328 5327 5325 5323
5499 5498 5496 5495 5493 5491 5490 5488 5487 5485 5484 5482 5480 5479 5478 5476 5474 5473 5471 5470 5468 5466 5464 5463 5460 5458 5456 5454 5451 5449 5446 5444 5441 5438 5436 5433 5431 5428 5424 5420 5416 5413 5410 5408 5405 5403 5400 5397 5394 5392 5389 5386 5383 5380 5377 5374 5371 5368 5365 5362 5359 5356 5354 5352 5349 5347 5344 5342 5340 5338 5336 5335 5334 5332 5330 5329 5327 5326 5325 5324 5322 5321 5320 5318 5317
5488 5486 5484 5483 5481 5480 5478 5477 5475 5474 5472 5470 5469 5467 5466 5464 5463 5461 5459 5458 5456 5454 5452 5450 5448 5445 5443 5440 5438 5436 5433 5431 5428 5426 5423 5420 5418 5415 5412 5408 5404 5402 5399 5396 5393 5391 5388 5385 5383 5380 5377 5374 5371 5369 5366 5363 5360 5357 5354 5351 5348 5345 5343 5341 5339 5336 5334 5332 5330 5329 5327 5326 5325 5323 5322 5321 5320 5318 5317 5316 5315 5314 5313 5311 5310
5476 5475 5473 5472 5470 5468 5467 5465 5464 5462 5461 5459 5457 5456 5454 5452 5450 5449 5447 5445 5443 5441 5439 5437 5434 5432 5429 5427 5424 5422 5420 5417 5415 5413 5411 5408 5405 5402 5399 5395 5392 5389 5387 5384 5381 5379 5376 5373 5371 5368 5365 5362 5360 5357 5354 5351 5349 5346 5343 5340 5337 5334 5332 5331 5328 5326 5324 5323 5321 5319 5318 5317 5316 5315 5314 5313 5312 5311 5310 5309 5308 5307 5305 5304 5303
5464 5462 5461 5459 5458 5456 5455 5453 5452 5450 5448 5447 5445 5443 5441 5439 5437 5435 5433 5431 5429 5427 5425 5423 5420 5418 5415 5413 5410 5408 5406 5404 5402 5400 5398 5395 5392 5389 5386 5382 5380 5377 5374 5371 5369 5366 5364 5361 5358 5355 5352 5350 5348 5346 5343 5340 5337 5334 5332 5329 5326 5324 5322 5321 5319 5316 5315 5313 5312 5310 5309 5308 5307 5307 5306 5305 5304 5303 5303 5302 5301 5300 5299 5297 5296
5451 5450 5448 5446 5445 5443 5441 5440 5438 5437 5435 5434 5432 5430 5428 5426 5424 5422 5420 5417 5415 5413 5411 5408 5406 5404 5401 5399 5397 5395 5392 5390 5389 5387 5385 5382 5380 5376 5373 5369 5366 5364 5361 5358 5356 5354 5351 5348 5345 5342 5339 5338 5336 5334 5331 5329 5326 5323 5321 5318 5315 5313 5312 5310 5308 5306 5305 5304 5302 5301 5301 5300 5299 5298 5298 5298 5297 5296 5295 5294 5293 5292 5291 5290 5289
5438 5437 5435 5433 5432 5430 5428 5427 5425 5423 5422 5420 5418 5416 5414 5412 5410 5408 5406 5403 5401 5399 5397 5394 5392 5390 5388 5385 5383 5381 5379 5377 5375 5373 5370 5368 5366 5363 5359 5356 5353 5350 5348 5345 5343 5341 5338 5335 5332 5329 5327 5325 5323 5322 5320 5318 5315 5313 5310 5307 5305 5303 5301 5300 5298 5296 5295 5294 5293 5292 5292 5291 5291 5290 5290 5290 5289 5288 5287 5287 5286 5285 5284 5283 5283
5425 5424 5422 5420 5418 5417 5415 5413 5411 5409 5408 5406 5404 5402 5400 5398 5396 5394 5391 5389 5387 5385 5382 5380 5378 5376 5374 5371 5369 5367 5364 5362 5360 5358 5355 5353 5351 5349 5346 5343 5339 5337 5335 5332 5330 5327 5325 5322 5319 5317 5314 5312 5310 5309 5308 5306 5304 5302 5299 5297 5295 5293 5291 5290 5288 5287 5286 5285 5284 5283 5283 5282 5282 5282 5282 5281 5281 5280 5280 5279 5279 5278 5277 5276 5275
5412 5411 5409 5407 5405 5403 5401 5399 5397 5395 5393 5391 5389 5387 5385 5383 5380 5378 5376 5374 5372 5370 5367 5365 5363 5361 5359 5356 5354 5352 5350 5348 5345 5343 5341 5338 5336 5334 5331 5329 5326 5324 5321 5319 5317 5315 5312 5309 5307 5304 5302 5300 5298 5296 5295 5294 5293 5291 5288 5286 5284 5283 5281 5280 5278 5277 5276 5275 5274 5274 5274 5273 5273 5273 5273 5273 5273 5273 5272 5272 5271 5271 5270 5269 5268